Regional Weather Roundup
Issued by NWS Green Bay, WI

Home | Current Version | Previous Version | Graphics & Text | Print | Product List | Glossary Off
Versions: 1 2 3 4 5 6 7 8 9 10 11 12 13 14 15 16 17 18 19 20 21 22 23 24 25 26 27 28 29 30 31 32 33 34 35 36 37 38 39 40 41 42 43 44 45 46 47 48 49 50

000
ASUS43 KGRB 041200
RWRGRB

NORTH-CENTRAL AND NORTHEAST WISCONSIN REGIONAL WEATHER ROUNDUP
NATIONAL WEATHER SERVICE GREEN BAY WI
700 AM CDT FRI SEP 04 2015

WIZ005-009-010>012-018-019-041300-
NORTH CENTRAL WISCONSIN

CITY           SKY/WX    TMP DP  RH WIND       PRES   REMARKS
IRONWOOD       CLEAR     61  61 100 E7        30.01S
MANITOWISH WTR NOT AVBL
ARBOR VITAE    NOT AVBL
EAGLE RIVER    NOT AVBL
LAND O LAKES   NOT AVBL
RHINELANDER    PTCLDY    58  56  93 CALM      30.08R FOG
PHILLIPS       NOT AVBL
ANTIGO         NOT AVBL
TOMAHAWK       NOT AVBL
MERRILL        NOT AVBL
$$

WIZ013-073-041300-
NORTHEAST WISCONSIN

CITY           SKY/WX    TMP DP  RH WIND       PRES   REMARKS
IRON MOUNTAIN  CLEAR     58  57  97 NW3       30.05R
MARINETTE      CLEAR     63  57  82 NE6       30.01S
$$

WIZ017-030-035>037-045-041300-
CENTRAL WISCONSIN

CITY           SKY/WX    TMP DP  RH WIND       PRES   REMARKS
MEDFORD        NOT AVBL
WAUSAU         CLEAR     60  59  96 CALM      30.04R FOG
MOSINEE        FOG       59  59 100 E5        30.05R VSB 1/8
MARSHFIELD     PTCLDY    63  59  87 E3        30.04R FOG
WISC RAPIDS    CLOUDY    64  61  90 E5        30.04R FOG
STEVENS POINT  NOT AVBL
WAUPACA        NOT AVBL
SHAWANO        NOT AVBL
CLINTONVILLE   NOT AVBL
WAUTOMA        FOG       64  64 100 NE5       30.03S VSB 1
$$

WIZ038-039-048-051-041300-
FOX VALLEY

CITY           SKY/WX    TMP DP  RH WIND       PRES   REMARKS
NWS GREEN BAY  CLOUDY    66  64  93 N5        30.02  FOG
APPLETON       CLOUDY    64  64 100 N6        30.01R FOG
OSHKOSH        CLOUDY    68  64  87 E6        30.02R
FOND DU LAC    CLOUDY    67  64  90 E3        30.02S
$$

WIZ022-050-052-041300-
EAST CENTRAL WISCONSIN

CITY           SKY/WX    TMP DP  RH WIND       PRES   REMARKS
EPHRAIM        NOT AVBL
STURGEON BAY   PTCLDY    64  61  88 NW3       30.04R
MANITOWOC      CLOUDY    66  66 100 MISG      30.02R
SHEBOYGAN      CLOUDY    67  65  93 N5        30.01S FOG
$$

LMZ563-521-522-541>543-041300-
LAKESHORE

STATION/POSITION TIME  TEMP    WIND        PRES    VSBY  WAVE
                       AIR SEA DIR/SP/G                  HT/PER
                 (UTC) (F)     (DEG/KT/KT) (MB)    (MI)  (FT/S)
SHEBOYGAN LKSHOR 1100   64     350/ 10/ 11 1016.1R
KEWAUNEE LKSHORE 1100   65      10/  6/ 13 1014.9R
NORTHPORT PIER   1100   67      40/  9/ 11 1016.3R
N MID LAKE BUOY  1050   68 66   20/ 12/ 14 1015.6R         1/ 3
S GREEN BAY BUOY 1130   65 66   10/  8/ 12 1017.7R
SISTER BAY LKSHO 1111   66      50/  3/  6   N/A
CHAMBERS ISLAND  1100   65     350/  7/  9 1016.3R
MENOMINEE LKSHOR 1100   64      10/  9/ 10 1015.1R
$$



USA.gov is the U.S. government's official web portal to all federal, state and local government web resources and services.